• In Russia
  • List of Countries
  • For 7 days
  • Water Temperature
  • Satellite Maps
  • Weather Map
  • Weather Widgets
  • user-avatar
    Login

    Hourly Weather Bukavu

    Today, 15 October, Monday

    Time Temperature Precipitation Wind Pressure Humidity
    00:00 +19°C° 0.4 mm 0 mps 689 mmHg 98%
    01:00 +19°C° 0.4 mm 0 mps 689 mmHg 98%
    02:00 +19°C° 0 mm 0 mps 689 mmHg 99%
    03:00 +19°C° 0.1 mm 0 mps 689 mmHg 99%
    04:00 +19°C° 0.1 mm 0 mps 689 mmHg 99%
    05:00 +18°C° 0.1 mm 0 mps 689 mmHg 99%
    06:00 +19°C° 0.2 mm 0 mps 689 mmHg 97%
    07:00 +21°C° 0.2 mm 0 mps 690 mmHg 96%
    08:00 +22°C° 0 mm 0 mps 690 mmHg 93%
    09:00 +25°C° 0.9 mm 1 mps 690 mmHg 88%
    10:00 +27°C° 0.9 mm 1 mps 690 mmHg 82%
    11:00 +28°C° 0.9 mm 1 mps 690 mmHg 76%
    12:00 +28°C° 1.7 mm 1 mps 690 mmHg 77%
    13:00 +29°C° 1.7 mm 1 mps 689 mmHg 78%
    14:00 +27°C° 1.7 mm 0 mps 688 mmHg 79%
    15:00 +26°C° 0.9 mm 0 mps 688 mmHg 83%
    16:00 +24°C° 0.9 mm 0 mps 687 mmHg 87%
    17:00 +23°C° 0.9 mm 0 mps 687 mmHg 91%
    18:00 +22°C° 0.1 mm 0 mps 687 mmHg 92%
    19:00 +22°C° 0.1 mm 0 mps 688 mmHg 93%
    20:00 +21°C° 0.1 mm 0 mps 688 mmHg 94%
    21:00 +20°C° 0 mm 0 mps 688 mmHg 94%
    22:00 +20°C° 0 mm 0 mps 688 mmHg 95%
    23:00 +20°C° 0 mm 0 mps 688 mmHg 95%

    Tomorrow, 16 October, Tuesday

    Time Temperature Precipitation Wind Pressure Humidity
    00:00 +19°C° 0 mm 0 mps 688 mmHg 96%
    01:00 +19°C° 0 mm 0 mps 688 mmHg 96%
    02:00 +19°C° 0 mm 0 mps 688 mmHg 96%
    03:00 +19°C° 1 mm 0 mps 688 mmHg 97%
    04:00 +18°C° 1 mm 0 mps 688 mmHg 97%
    05:00 +18°C° 1 mm 0 mps 688 mmHg 98%
    06:00 +19°C° 0.1 mm 0 mps 688 mmHg 94%
    07:00 +21°C° 0.1 mm 0 mps 689 mmHg 91%
    08:00 +22°C° 0.1 mm 0 mps 690 mmHg 87%
    09:00 +25°C° 0.4 mm 0 mps 690 mmHg 76%
    10:00 +28°C° 0.4 mm 0 mps 690 mmHg 66%
    11:00 +31°C° 0.4 mm 0 mps 691 mmHg 55%
    12:00 +31°C° 0.1 mm 0 mps 690 mmHg 52%
    13:00 +33°C° 0.1 mm 1 mps 689 mmHg 49%
    14:00 +33°C° 0.1 mm 1 mps 688 mmHg 46%
    15:00 +31°C° 0 mm 1 mps 688 mmHg 54%
    16:00 +30°C° 0 mm 1 mps 687 mmHg 62%
    17:00 +28°C° 0 mm 1 mps 687 mmHg 70%
    18:00 +27°C° 0.2 mm 1 mps 687 mmHg 75%
    19:00 +25°C° 0.2 mm 1 mps 687 mmHg 81%
    20:00 +21°C° 0.2 mm 0 mps 687 mmHg 87%
    21:00 +21°C° 0.4 mm 0 mps 687 mmHg 88%
    22:00 +21°C° 0.4 mm 0 mps 688 mmHg 89%
    23:00 +20°C° 0.4 mm 0 mps 688 mmHg 90%

    Day after tomorrow, 17 October, Wednesday

    Time Temperature Precipitation Wind Pressure Humidity
    00:00 +20°C° 0.1 mm 0 mps 688 mmHg 91%
    01:00 +20°C° 0.1 mm 0 mps 687 mmHg 92%
    02:00 +19°C° 0.1 mm 0 mps 687 mmHg 93%
    03:00 +19°C° 0.1 mm 0 mps 687 mmHg 94%
    04:00 +19°C° 0.1 mm 0 mps 686 mmHg 95%
    05:00 +18°C° 0.1 mm 0 mps 686 mmHg 97%
    06:00 +20°C° 0 mm 0 mps 687 mmHg 92%
    07:00 +21°C° 0 mm 0 mps 688 mmHg 87%
    08:00 +25°C° 0 mm 1 mps 690 mmHg 82%
    09:00 +25°C° 0.4 mm 0 mps 690 mmHg 74%
    10:00 +28°C° 0.4 mm 0 mps 690 mmHg 66%
    11:00 +30°C° 0.4 mm 0 mps 690 mmHg 58%
    12:00 +30°C° 0.1 mm 0 mps 689 mmHg 56%
    13:00 +30°C° 0.1 mm 0 mps 688 mmHg 54%
    14:00 +32°C° 0.1 mm 1 mps 687 mmHg 53%
    15:00 +30°C° 0.7 mm 1 mps 686 mmHg 60%
    16:00 +29°C° 0.7 mm 1 mps 686 mmHg 67%
    17:00 +28°C° 0.7 mm 1 mps 686 mmHg 74%
    18:00 +26°C° 5.7 mm 1 mps 686 mmHg 82%
    19:00 +24°C° 5.7 mm 1 mps 686 mmHg 89%
    20:00 +23°C° 5.7 mm 1 mps 687 mmHg 97%
    21:00 +22°C° 5.5 mm 1 mps 687 mmHg 97%
    22:00 +22°C° 5.5 mm 1 mps 688 mmHg 98%
    23:00 +22°C° 5.5 mm 1 mps 688 mmHg 98%

    18 October, Thursday

    Time Temperature Precipitation Wind Pressure Humidity
    00:00 +22°C° 1.3 mm 1 mps 688 mmHg 98%
    01:00 +22°C° 1.3 mm 1 mps 688 mmHg 99%
    02:00 +21°C° 1.3 mm 1 mps 687 mmHg 99%
    03:00 +21°C° 0.2 mm 1 mps 687 mmHg 99%
    04:00 +19°C° 0.2 mm 0 mps 687 mmHg 99%
    05:00 +19°C° 0.2 mm 0 mps 687 mmHg 99%
    06:00 +19°C° 0.1 mm 0 mps 688 mmHg 98%
    07:00 +20°C° 0.1 mm 0 mps 689 mmHg 97%
    08:00 +20°C° 0.1 mm 0 mps 689 mmHg 96%
    09:00 +22°C° 0.2 mm 0 mps 689 mmHg 87%
    10:00 +25°C° 0.2 mm 1 mps 690 mmHg 78%
    11:00 +27°C° 0.2 mm 1 mps 690 mmHg 69%
    12:00 +28°C° 0 mm 1 mps 689 mmHg 63%
    13:00 +29°C° 0 mm 1 mps 688 mmHg 58%
    14:00 +30°C° 0 mm 1 mps 687 mmHg 53%
    15:00 +29°C° 0.2 mm 1 mps 687 mmHg 60%
    16:00 +28°C° 0.2 mm 1 mps 686 mmHg 66%
    17:00 +28°C° 0.2 mm 1 mps 686 mmHg 73%
    18:00 +24°C° 0.2 mm 0 mps 687 mmHg 79%
    19:00 +22°C° 0.2 mm 0 mps 687 mmHg 85%
    20:00 +21°C° 0.2 mm 0 mps 687 mmHg 90%
    21:00 +21°C° 0.7 mm 0 mps 687 mmHg 92%
    22:00 +20°C° 0.7 mm 0 mps 687 mmHg 93%
    23:00 +20°C° 0.7 mm 0 mps 688 mmHg 94%

    19 October, Friday

    Time Temperature Precipitation Wind Pressure Humidity
    00:00 +20°C° 1.6 mm 0 mps 687 mmHg 96%
    01:00 +20°C° 1.6 mm 0 mps 687 mmHg 97%
    02:00 +21°C° 1.6 mm 1 mps 687 mmHg 98%
    03:00 +21°C° 0.4 mm 1 mps 687 mmHg 98%
    04:00 +19°C° 0.4 mm 0 mps 687 mmHg 98%
    05:00 +19°C° 0.4 mm 0 mps 688 mmHg 99%
    06:00 +20°C° 0.2 mm 0 mps 688 mmHg 98%
    07:00 +20°C° 0.2 mm 0 mps 689 mmHg 98%
    08:00 +23°C° 0.2 mm 1 mps 690 mmHg 98%
    09:00 +24°C° 0.9 mm 1 mps 690 mmHg 94%
    10:00 +25°C° 0.9 mm 1 mps 689 mmHg 90%
    11:00 +26°C° 0.9 mm 1 mps 689 mmHg 86%
    12:00 +26°C° 1.4 mm 1 mps 688 mmHg 87%
    13:00 +26°C° 1.4 mm 1 mps 688 mmHg 88%
    14:00 +25°C° 1.4 mm 0 mps 687 mmHg 89%
    15:00 +24°C° 2.2 mm 0 mps 687 mmHg 91%
    16:00 +23°C° 2.2 mm 0 mps 687 mmHg 94%
    17:00 +22°C° 2.2 mm 0 mps 686 mmHg 96%
    18:00 +21°C° 1 mm 0 mps 687 mmHg 97%
    19:00 +20°C° 1 mm 0 mps 688 mmHg 97%
    20:00 +20°C° 1 mm 0 mps 688 mmHg 97%
    21:00 +20°C° 0.3 mm 0 mps 688 mmHg 98%
    22:00 +19°C° 0.3 mm 0 mps 688 mmHg 98%
    23:00 +19°C° 0.3 mm 0 mps 689 mmHg 98%

    20 October, Saturday

    Time Temperature Precipitation Wind Pressure Humidity
    00:00 +19°C° 0.2 mm 0 mps 688 mmHg 98%
    01:00 +19°C° 0.2 mm 0 mps 688 mmHg 98%
    02:00 +18°C° 0.2 mm 0 mps 687 mmHg 99%
    03:00 +18°C° 0 mm 0 mps 687 mmHg 99%
    04:00 +18°C° 0 mm 0 mps 687 mmHg 99%
    05:00 +18°C° 0 mm 0 mps 688 mmHg 99%
    06:00 +19°C° 0 mm 0 mps 688 mmHg 98%
    07:00 +20°C° 0 mm 0 mps 689 mmHg 97%
    08:00 +20°C° 0 mm 0 mps 690 mmHg 96%
    09:00 +24°C° 0.1 mm 1 mps 690 mmHg 88%
    10:00 +26°C° 0.1 mm 1 mps 690 mmHg 79%
    11:00 +28°C° 0.1 mm 1 mps 690 mmHg 71%
    12:00 +27°C° 1.2 mm 1 mps 689 mmHg 76%
    13:00 +27°C° 1.2 mm 1 mps 688 mmHg 81%
    14:00 +27°C° 1.2 mm 1 mps 687 mmHg 86%
    15:00 +24°C° 1.7 mm 0 mps 687 mmHg 90%
    16:00 +23°C° 1.7 mm 0 mps 687 mmHg 93%
    17:00 +22°C° 1.7 mm 0 mps 687 mmHg 97%
    18:00 +21°C° 0.7 mm 0 mps 687 mmHg 97%
    19:00 +20°C° 0.7 mm 0 mps 688 mmHg 97%
    20:00 +20°C° 0.7 mm 0 mps 688 mmHg 98%
    21:00 +20°C° 0.2 mm 0 mps 688 mmHg 98%
    22:00 +19°C° 0.2 mm 0 mps 688 mmHg 98%
    23:00 +19°C° 0.2 mm 0 mps 688 mmHg 98%
    Show more